ONEWEB-0258 (48976 NORAD) Tracking and Keplerian Element Data

This shows tracking and keplerian element data for the satellite.

Feedback or suggestion? Click here.




ElementValue
Catalog48976
NameONEWEB-0258
Epoch Orbit331
Epoch Day300.58334491
Epoch Year2021
RAAN205.6872
Inclination87.9183
Eccentricity0.0001898
Argument of Perigee80.7634
Mean Anonmoly257.8125
Mean Motion13.16571074
Decay Rate0.00040301
L11 48976U 21060K 21300.58334491 .00040301 00000-0 10496+0 0 9993
L22 48976 87.9183 205.6872 0001898 80.7634 257.8125 13.16571074 3318

Live tracking and technical data element details for ONEWEB-0258 (NORAD 48976). ONEWEB-0258 can be tracked NOW for your location showing map with azimuth and elevation plus other details from your city location.

Track the satellite on the map from your city or location and see movement details for azimuth, elevation, latitude, longitude, range, height, and movement on the map or in text.







IsCatalogInMostPopularTable: catalog: 48976, numindb: 29
Update: records affected: 1



GetName: 48976 ONEWEB-0258

Hit Count: updated at: Thu, 28 Oct 2021 10:57:14 GMT